PropCube Merryweather

operational
NORAD ID: 40973 Int'l Des: 2015-058 Owner: USNPS Country: US
LEO

PropCube Merryweatherについて

説明を読み込み中...

リアルタイム位置

3D地球を読み込み中...

次回通過

高度履歴

Altitude vs Time

uPlot chart will show altitude changes over time

軌道要素

1 40973U 15058K 26063.50904516 .00007880 00000-0 65598-3 0 9998
2 40973 64.7680 219.3940 0123843 101.7502 259.7536 14.93463826 99169
Epoch: Mar 4, 2026 • Age: 23 hours

現在のステータス

高度 539.2 km
速度 7.62 km/s
衛星直下点 20.66°N, 113.06°W
打ち上げ日 Oct 8, 2015
運用期間 10.4 years
タイプ other

技術仕様

分類 Payload
質量 1.00 kg
乾燥質量 1.00 kg
総質量 1.00 kg
長さ 0.10 m
直径 0.10 m
スパン 0.10 m
形状 Box
製造者 TYVAK
バスタイプ Cubesat 1U
フェーズステータス In Orbit
所有者/国 USNPS/US

大規模コンステレーション

Loading constellations...